STARLINK-37138, 68308

Orbit data source: Space-Track

STARLINK-37138, 68308 is a payload satellite owned by SpaceX/Seattle (US) in SSO that was launched on Fri, 20 Mar 2026 UTC via an FALCON 9 launch vehicle from the Air Force Western Test Range (AFWTR). Payload-class satellites include a variety of spacecraft equipped with specific instruments for various scientific and technological missions. These include communications satellites like Starlink; space stations such as the ISS; scientific satellites like the Hubble; Earth observation satellites from companies like Planet Labs, Umbra, and HawkEye 360; GPS; miniature CubeSats for education and research; and military/defense satellites.

Loading next visibility...
Identifier
68308, 2026-057Q
Orbit
SSO
Country
Flag of USUS
Related business
Manufacturer
SpaceX/Seattle
Mission
Operational spacecraft
Bus & Motor
STARLINK V2MO, Unknown motor
Mass
575 kg wet, ~530 kg dry
Launch date (UTC)
2026-03-20 (3 months ago)
Launch vehicle
FALCON 9
Launch site
Air Force Western Test Range (AFWTR)
Object type
Payload
Rocket body
Debris
Shape & HBR
Unknown shape, 17.7 m
Radar Cross Section
Large (>1 m²)

Expand to show TLE details & history
Last TLE update: 12 hours ago

TLE from 12 hours ago
0 STARLINK-37138
1 68308U 26057Q   26171.34052147  .00020160  00000-0  55886-3 0  9992
2 68308  97.2877 297.9497 0000661  44.8613 315.2685 15.36975424 14385
Epoch: 2026-06-20T08:10Z
TLE epoch observation values (Epoch: 2026-06-20T08:10:21.055Z)
Latitude
0.00001°
Longitude
-93.19458°
Altitude
457.855 km
Speed
7.638 km/s
True Right ascension
19h 51m 47s
True Declination
0° 00' 00"
Sunlit
Object was in full shadow at epoch
Visualization orbit readout
Latitude
Unknown
Longitude
Unknown
Altitude
Unknown
Speed
Unknown
Apparent Right ascension
Unknown
Apparent Declination
Unknown
Sunlit
N/A
Visualization observer readout
Local Sidereal Time
07:20:47
Azimuth
Unknown
Elevation
Unknown
Doppler factor
Unknown
Orbital elements
Apogee altitude
452.449 km
Perigee altitude
451.546 km
Semi-major axis
6,830.134 km
Eccentricity
0.00007
Inclination
97.2877°
RAAN
297.9497°
Arg. of periapsis
44.8613°
True anomaly
315.26317°
Mean anomaly
315.2685°
Eccentric anomaly
315.26583°
Mean motion
3.84503 °/min
Orbital period
93.63 mins
BSTAR
0.00055886
Loading maneuver chart data...
Computing Atmospheric mass density...
Loading historical data...
Loading historical data...
Loading historical data...
Loading historical data...
Loading historical data...
Loading historical data...
Loading historical data...

Documentation

Showing up to 5 results
|